AO-07 1 07530U 74089B 16175.20534881 -.00000042 00000-0 96889-5 0 9996 2 07530 101.5745 145.8147 0011644 300.9871 129.6376 12.53621714903877 FO-29 1 24278U 96046B 16175.38209113 .00000014 00000-0 50114-4 0 9995 2 24278 98.5856 99.7886 0350277 186.4339 173.2240 13.53068180980350 RS-22 1 27939U 03042A 16175.88443252 .00000161 00000-0 37436-4 0 9990 2 27939 97.8867 327.2996 0011906 285.6017 74.3873 14.66414530680809 HO-68 1 36122U 09072B 16175.67086628 -.00000059 00000-0 -43517-4 0 9995 2 36122 100.1416 211.2668 0007534 345.4731 14.6165 13.16334466313468 AO-73 1 39444U 13066AE 16175.37644666 .00000400 00000-0 56789-4 0 9995 2 39444 97.6805 228.5991 0058845 2.2771 357.8699 14.81081496138490 EO-79 1 40025U 14033R 16175.78341768 .00000368 00000-0 46158-4 0 9991 2 40025 97.9281 81.2425 0013832 47.1716 313.0660 14.88026545109185 XW-2A 1 40903U 15049E 16175.82350551 .00002747 00000-0 79194-4 0 9998 2 40903 97.4454 191.0549 0017808 109.8301 302.7918 15.36470110 42572 XW-2C 1 40906U 15049H 16175.72631000 .00001025 00000-0 60545-4 0 9999 2 40906 97.4517 182.6615 0016340 21.3970 35.8612 15.13619385 41999 LILACSAT-2 1 40908U 15049K 16175.67730250 .00000899 00000-0 55107-4 0 9998 2 40908 97.4578 182.5080 0016946 14.7825 50.7842 15.12564311 41965 XW-2E 1 40909U 15049L 16175.74063579 .00002041 00000-0 11380-3 0 9995 2 40909 97.4517 182.9398 0015638 24.2228 31.8454 15.14597488 42014 UO-11 1 14781U 84021B 16175.71475564 .00000123 00000-0 21592-4 0 9994 2 14781 97.7488 227.5191 0007153 298.4358 61.6134 14.82756662737227 LO-19 1 20442U 90005G 16174.86165237 .00000024 00000-0 24753-4 0 9994 2 20442 098.5436 109.7245 0012695 125.9321 234.3043 14.32820112380108 AO-27 1 22825U 93061C 16175.73230316 .00000002 00000-0 18529-4 0 9994 2 22825 98.7596 132.0191 0007478 303.7890 56.2579 14.29958999186170 IO-26 1 22826U 93061D 16175.77524885 .00000005 00000-0 19247-4 0 9997 2 22826 98.7540 132.1857 0007889 293.3923 66.6429 14.30283847186340 GO-32 1 25397U 98043D 16175.81771655 -.00000010 00000-0 14227-4 0 9992 2 25397 98.5673 120.5872 0001155 21.4011 338.7216 14.23596606932806 NO-44 1 26931U 01043C 16175.77043850 -.00000012 00000-0 27278-4 0 9997 2 26931 67.0520 295.9230 0006630 260.2107 99.8246 14.30412565769085 SO-50 1 27607U 02058C 16175.40207933 .00000033 00000-0 25604-4 0 9992 2 27607 64.5542 141.8547 0067551 215.7376 143.9196 14.75169037726185 CO-55 1 27844U 03031E 16175.57467565 .00000057 00000-0 45667-4 0 9991 2 27844 98.6919 183.7692 0008710 309.6765 50.3644 14.21956965673351 CO-57 1 27848U 03031J 16175.26751080 .00000051 00000-0 43403-4 0 9999 2 27848 98.7016 183.5614 0008773 319.8340 40.2188 14.21582604673207 CO-65 1 32785U 08021C 16175.15546110 .00000347 00000-0 43914-4 0 9998 2 32785 97.6022 209.1237 0011636 278.2750 81.7148 14.87582043441511 PRISM 1 33493U 09002B 16175.83097685 .00001033 00000-0 10023-3 0 9995 2 33493 98.2158 36.2384 0015375 179.6013 180.5224 14.94958200402225 TISAT-1 1 36799U 10035E 16175.83574260 .00000562 00000-0 64529-4 0 9991 2 36799 98.0314 286.2154 0013870 67.4089 292.8594 14.89836510322418 ALMASAT-1 1 38078U 12006B 16175.71011466 .00025826 34654-5 36375-3 0 9998 2 38078 69.4444 4.0356 0380057 92.6085 271.8631 15.03324928230561 DUCHIFAT-1 1 40021U 14033M 16175.80026015 .00000593 00000-0 68428-4 0 9999 2 40021 97.9313 82.3532 0014482 45.4709 314.7688 14.89326255109240 NANOSATCBR1 1 40024U 14033Q 16175.71653730 .00000471 00000-0 56415-4 0 9990 2 40024 97.9286 81.6605 0013675 45.8560 314.3779 14.88732673109204 DTUSAT-2 1 40030U 14033W 16175.69920351 .00000379 00000-0 47764-4 0 9994 2 40030 97.9259 80.6051 0013177 41.9558 318.2665 14.87659470109148 ANTELSAT 1 40034U 14033AA 16175.74976167 .00000426 00000-0 71750-4 0 9995 2 40034 97.9035 63.8760 0059668 6.4413 353.7553 14.73401284108147 MET-2/21 1 22782U 93055A 16174.88917817 .00000047 00000-0 29093-4 0 9999 2 22782 82.5497 308.7038 0022382 2.2086 110.7439 13.83789566152001 NOAA-15 1 25338U 98030A 16175.60901822 .00000124 00000-0 52048-4 0 9999 2 25338 98.7820 179.7705 0010798 161.6902 198.5143 14.25735424942220 NOAA-18 1 28654U 05018A 16175.58045448 -.00000059 00000-0 00000 0 0 9991 2 28654 99.1965 182.6774 0014305 1.6269 358.5415 14.12288199571816 NOAA-19 1 33591U 09005A 16175.46470322 .00000106 00000-0 57708-4 0 9991 2 33591 99.0403 132.2882 0013559 197.4779 162.6407 14.12083132380519 HUBBLE 1 20580U 90037B 16175.77063404 .00000330 00000-0 20637-4 0 9993 2 20580 28.4699 215.2458 0002589 284.5775 75.5004 15.08402938236107 ISS 1 25544U 98067A 16175.92762731 .00006177 00000-0 98540-4 0 9998 2 25544 51.6452 24.4074 0000815 7.6629 205.2443 15.54667358 6039 CO-58 1 28895U 05043F 16174.97681696 .00000186 00000-0 44684-4 0 9990 2 28895 97.8327 348.6220 0016501 195.7047 164.3646 14.63208536567951 CAPE1 1 31130U 07012P 16175.79200187 .00000167 00000-0 46336-4 0 9992 2 31130 98.0333 131.0052 0095369 235.1282 124.0923 14.55941472487094 AAUSAT2 1 32788U 08021F 16175.07339970 .00000921 00000-0 93289-4 0 9994 2 32788 97.6029 217.7512 0010652 247.5550 112.4543 14.93239137442079 DO-64 1 32789U 08021G 16175.71937596 .00002521 00000-0 19017-3 0 9998 2 32789 97.6048 234.8299 0012497 236.4525 123.5508 15.03276633442989 CO-66 1 32791U 08021J 16175.77121738 .00000472 00000-0 54668-4 0 9995 2 32791 97.6029 212.8983 0011973 263.3511 96.6345 14.89786815441775 RS-30 1 32953U 08025A 16175.88359536 .00000010 00000-0 -13620-7 0 9995 2 32953 82.5040 102.4902 0019358 351.8676 8.2087 12.43070151366917 JUGNU 1 37839U 11058B 16175.16464258 .00000288 00000-0 11586-4 0 9994 2 37839 19.9608 107.3235 0019067 185.5283 307.8678 14.12544356242878 SRMSAT 1 37841U 11058D 16174.29197227 .00000294 00000-0 16307-4 0 9992 2 37841 019.9707 146.9048 0012064 088.4592 049.4811 14.10542905242319 AO-71 1 37854U 11061E 16175.09767678 .00002167 00000-0 12707-3 0 9992 2 37854 101.7026 220.6789 0173081 56.4696 305.2913 15.02258137252989 HRBE 1 37855U 11061F 16174.85479206 .00002811 00000-0 15892-3 0 9997 2 37855 101.7165 218.3780 0186800 61.5027 300.4854 15.01178980252849 HORYU-2 1 38340U 12025D 16175.41281961 .00000333 00000-0 57534-4 0 9997 2 38340 98.3551 161.1658 0011707 359.9584 0.1621 14.75042713220398 RS-40 1 38735U 12041C 16175.50537063 .00000040 00000-0 21992-3 0 9993 2 38735 82.4734 187.8285 0018421 89.7065 270.6124 12.42573053177151 BEESAT-3 1 39134U 13015E 16175.51428551 .00001572 00000-0 81230-4 0 9994 2 39134 64.8713 302.5552 0008815 287.1645 72.9021 15.16012131175070 BEESAT-2 1 39136U 13015G 16175.66407130 .00001477 00000-0 81560-4 0 9992 2 39136 64.8720 308.1844 0008272 288.6529 71.4208 15.13671965174983 ZACUBE-1 1 39417U 13066B 16175.15881005 .00000299 00000-0 44747-4 0 9998 2 39417 97.6794 227.7759 0059699 4.9107 355.2678 14.80410025139651 TRITON-1 1 39427U 13066M 16175.29549764 .00000320 00000-0 59253-4 0 9990 2 39427 97.6667 208.2063 0116069 58.2642 302.9813 14.67201715138416 GOMX-1 1 39430U 13066Q 16175.77215549 .00000375 00000-0 76980-4 0 9994 2 39430 97.6688 196.2177 0154001 94.7279 267.1503 14.58606998137682 LO-74 1 39440U 13066AA 16175.73051141 .00000286 00000-0 47403-4 0 9996 2 39440 97.6729 220.4722 0081701 23.5470 336.9446 14.75171982139248 SPROUT 1 39770U 14029E 16175.83180088 .00001011 00000-0 12348-3 0 9992 2 39770 97.8726 272.9854 0010714 67.5973 292.6381 14.85418288112929 EO-80 1 40032U 14033Y 16175.79285800 .00000393 00000-0 49341-4 0 9999 2 40032 97.9267 80.7079 0013142 41.9515 318.2706 14.87593143109156 VELOX-1 1 40057U 14034E 16175.77205233 .00000539 00000-0 84633-4 0 9992 2 40057 98.1946 264.6699 0012274 122.1301 238.1090 14.76725133106855 DAURIA DX 1 1 40071U 14037C 16175.76149680 .00000226 00000-0 36714-4 0 9993 2 40071 98.3316 266.9216 0009566 119.0610 241.1573 14.80826572105923 UKUBE-1 1 40074U 14037F 16175.75535831 .00000495 00000-0 67873-4 0 9990 2 40074 98.3364 269.0774 0005790 118.5227 241.6569 14.83091863106049 HODOYOSHI-1 1 40299U 14070B 16175.77959619 .00000972 00000-0 46471-4 0 9993 2 40299 97.4298 257.5715 0011969 269.8356 204.7555 15.21346850 90431 CHUBUSAT-1 1 40300U 14070C 16175.73429041 .00001190 00000-0 58484-4 0 9993 2 40300 97.4252 255.7390 0019440 276.1919 200.5730 15.19858182 90321 QSAT-EOS 1 40301U 14070D 16175.74809973 .00002234 00000-0 10255-3 0 9994 2 40301 97.4200 255.0945 0027431 275.5329 202.0878 15.21143408 90300 FIREBIRD FU3 1 40377U 15003B 16175.81679346 .00003717 00000-0 16917-3 0 9999 2 40377 99.0872 283.8956 0144938 107.9073 253.8018 15.12614643 76783 FIREBIRD FU4 1 40378U 15003C 16175.81313471 .00003697 00000-0 16812-3 0 9995 2 40378 99.0873 283.9060 0145141 107.8626 253.8490 15.12625696 76786 GRIFEX 1 40379U 15003D 16175.82303286 .00003020 00000-0 14389-3 0 9997 2 40379 99.0882 283.0526 0149233 111.4445 250.2771 15.10838399 76733 NO-84 1 40654U 15025D 16175.25137409 .00011991 00000-0 25132-3 0 01521 2 40654 054.9993 031.7431 0210899 088.3174 274.1992 15.25650273024960 NO-83 1 40655U 15025E 16175.01380295 .00017380 00000-0 33174-3 0 01689 2 40655 054.9847 026.2490 0192610 090.5223 271.7797 15.30630052024991 DEORBITSAIL 1 40719U 15032E 16175.18902927 .00000571 00000-0 91250-4 0 9994 2 40719 98.0166 66.7687 0015599 214.0087 146.0124 14.75560412 51373 NUDT-PHONESAT 1 40900U 15049B 16175.84841731 .00003080 00000-0 15915-3 0 9993 2 40900 97.4434 183.4562 0016422 38.0185 83.1784 15.16914867 42088 XW-2D 1 40907U 15049J 16175.60609626 .00001400 00000-0 81275-4 0 9996 2 40907 97.4493 182.4197 0015659 20.7580 96.2834 15.13664423 41976 XW-2F 1 40910U 15049M 16175.83717742 .00001925 00000-0 10890-3 0 9990 2 40910 97.4515 182.8374 0016967 17.9275 104.4083 15.14131006 41906 XW-2B 1 40911U 15049N 16175.72687079 .00001079 00000-0 63506-4 0 9991 2 40911 97.4527 182.7124 0015339 20.5044 36.5976 15.13645293 41899 DCBB 1 40912U 15049P 16175.82992162 .00002178 00000-0 11624-3 0 9999 2 40912 97.4515 183.6207 0017031 14.4622 109.2028 15.16077363 41968 TW-1C 1 40926U 15051B 16175.91223557 .00006782 00000-0 19137-3 0 9994 2 40926 97.2739 212.7561 0015096 32.5728 90.7692 15.36604838 41790 TW-1A 1 40928U 15051D 16175.87279024 .00003257 00000-0 10318-3 0 9997 2 40928 97.2688 211.8500 0015511 48.1302 75.4303 15.33335171 41743 IO-86 1 40931U 15052B 16175.76647617 .00000878 00000-0 33571-4 0 9990 2 40931 5.9986 268.2288 0012648 216.1076 143.8382 14.76467748 39900 GomX-3 1 40949U 98067HA 16175.76051100 .00072633 00000-0 38367-3 0 9997 2 40949 51.6316 0.3163 0003786 242.2350 117.8268 15.79941311 41105 LQSat 1 40958U 15057A 16175.76524148 .00000101 00000-0 23575-4 0 9999 2 40958 98.0141 250.5731 0019171 130.0144 230.2745 14.72874575 38358 AO-85 1 40967U 15058D 16174.41088999 .00000565 00000-0 78445-4 0 01712 2 40967 064.7776 229.9960 0203634 203.7826 155.3771 14.75044088024048 ATHENOXAT-1 1 41168U 15077C 16175.58514645 .00002548 00000-0 11236-3 0 9993 2 41168 14.9904 266.1521 0013013 89.3945 30.5161 15.10006197 28723 ChubuSat-2 1 41338U 16012B 16174.51219137 .00000518 00000-0 34445-4 0 9995 2 41338 31.0041 236.0344 0013811 99.8859 260.3336 14.99400879 18951 ChubuSat-3 1 41339U 16012C 16175.55743998 .00000491 00000-0 32038-4 0 9994 2 41339 31.0096 229.1514 0013607 116.4354 243.7679 14.99630502 19081 Horyu-4 1 41340U 16012D 16175.19455155 .00000804 00000-0 56229-4 0 9997 2 41340 31.0064 230.9786 0014164 117.5465 242.6610 15.00044468 19056 OUFTI-1 1 41458U 16025C 16175.75012032 .00003323 00000-0 18909-3 0 9997 2 41458 98.2117 186.6141 0178313 46.3014 315.2824 15.01113907 8764 e-st@r-II 1 41459U 16025D 16175.74986600 .00003323 00000-0 18914-3 0 9994 2 41459 98.2108 186.6151 0178316 46.3078 315.2758 15.01104568 8768 AAUSAT4 1 41460U 16025E 16175.67990841 .00004662 00000-0 26298-3 0 9991 2 41460 98.2095 186.5491 0177303 46.5574 315.0216 15.01282173 8754 MinXSS 1 41474U 98067HU 16175.72900404 .00019600 00000-0 26990-3 0 9991 2 41474 51.6447 24.9354 0003579 172.4454 233.0543 15.57245229 5958 CADRE 1 41475U 98067HV 16175.79011274 .00029964 00000-0 39603-3 0 9996 2 41475 51.6446 24.4962 0002938 182.6856 264.6168 15.58080460 5964 STMSat 1 1 41476U 98067HW 16175.80052655 .00020130 00000-0 27680-3 0 9995 2 41476 51.6436 24.5622 0003224 156.2383 294.0602 15.57265260 5871 NODES 1 1 41477U 98067HX 16175.80762899 .00014328 00000-0 20287-3 0 9992 2 41477 51.6439 24.6034 0003264 153.9874 300.1889 15.56756728 5875 NODES 2 1 41478U 98067HY 16175.80741194 .00014325 00000-0 20307-3 0 9998 2 41478 51.6437 24.6122 0003277 156.3795 293.1646 15.56725270 5875 NuSat1-LUSEX 1 41557U 16033B 16175.80817039 .00002017 00000-0 82768-4 0 9996 2 41557 97.4978 248.9633 0014888 183.8362 317.8810 15.25339417 3767 NuSat2 1 41558U 16033C 16175.81088650 .00002090 00000-0 86031-4 0 9995 2 41558 97.5001 248.9682 0014374 182.1864 321.9354 15.25199029 3761 /EX
